Terminal Aerodrome Forecast
Issued by NWS Omaha/Valley, NE

Home | Current Version | Previous Version | Graphics & Text | Print | Product List | Glossary On
Versions: 1 2 3 4 5 6 7 8 9 10 11 12 13 14 15 16 17 18 19 20 21 22 23 24 25 26 27 28 29 30 31 32 33 34 35 36 37 38 39 40 41 42 43 44 45 46 47 48
000
FTUS43 KOAX 260520
TAFOFK
TAF
KOFK 260520Z 2606/2706 33017KT P6SM BKN008 OVC020
     FM260900 33017G25KT P6SM BKN010 OVC070
     FM270000 34014KT P6SM FEW035 SCT060
     FM270200 33009KT P6SM FEW050 SCT090=

USA.gov is the U.S. government's official web portal to all federal, state and local government web resources and services.